Location: DARK SKY Beskydy - Park tmavé oblohy, www.darkskybeskydy.cz
(49.4926°N, 18.5016°E)
Time: 09:33:06
(UTC+02:00)

Envisat - Pass Details

Date: 21 June 2024
Orbit: 762 x 764 km, 98.3° (Epoch: 13 July)

Event Time Altitude Azimuth Distance (km) Brightness Sun altitude
Rises 03:36:05 0° 19° (NNE) 3,238 7.8 -8.0°
Reaches altitude 10° 03:38:31 10° 26° (NNE) 2,307 7.0 -7.8°
Maximum altitude 03:43:21 43° 98° (E) 1,063 4.1 -7.3°
Drops below altitude 10° 03:48:09 10° 170° (S) 2,289 5.1 -6.8°
Sets 03:50:33 0° 177° (S) 3,211 5.8 -6.5°
